Regional Weather Roundup
Issued by NWS Charleston, SC

Current Version | Previous Version | Graphics & Text | Print | Product List | Glossary On
Versions: 1 2 3 4 5 6 7 8 9 10 11 12 13 14 15 16 17 18 19 20 21 22 23 24 25 26 27 28 29 30 31 32 33 34 35 36 37 38 39 40 41 42 43 44 45 46 47 48 49 50
000 ASUS42 KCHS 271127 RWRCHS REGIONAL WEATHER ROUNDUP NATIONAL WEATHER SERVICE CHARLESTON SC 700 AM EDT WED MAY 27 2015 NOTE: "FAIR" INDICATES FEW OR NO CLOUDS BELOW 12,000 FEET WITH NO SIGNIFICANT WEATHER AND/OR OBSTRUCTIONS TO VISIBILITY. NOT ALL STATIONS ARE QUALITY CONTROLLED BY THE NATIONAL WEATHER SERVICE. USE DATA WITH CAUTION...ESPECIALLY DEWPOINT OBSERVATIONS. SCZ027-030-031-034>040-042>050-271200- ...SOUTHEAST SOUTH CAROLINA... CITY SKY/WX TMP DP RH WIND PRES REMARKS N CHARLESTON PTCLDY 73 69 87 CALM 30.23R WATERFRONT PAR N/A 76 72 87 VRB3 30.18R MOUNT PLEASANT PTSUNNY 73 72 94 CALM 30.24R JOHNS ISLAND CLOUDY 77 72 83 CALM 30.23R PINOPOLIS NOT AVBL MONCKS CORNER FAIR 72 70 94 CALM 30.24R SUMMERVILLE FAIR 68 68 100 CALM 30.24R BEAUFORT MCAS MOCLDY 76 71 85 S3 30.21R BEAUFORT ARPT FAIR 72 70 94 CALM 30.22R FOG HILTON HEAD IS PTCLDY 73 70 88 S7 30.22R WALTERBORO MOSUNNY 68 68 100 CALM 30.24R ALLENDALE FAIR 68 68 100 CALM 30.23R ...SOUTHERN MIDLANDS AND PEE DEE... CITY SKY/WX TMP DP RH WIND PRES REMARKS GEORGETOWN NOT AVBL KINGSTREE NOT AVBL ORANGEBURG CLOUDY 71 67 87 CALM 30.25R BARNWELL CLOUDY 70 70 100 CALM 30.25R AIKEN CLOUDY 54 54 100 CALM 30.28R MANNING NOT AVBL COLUMBIA MOCLDY 69 64 84 CALM 30.24R SUMTER MOCLDY 70 66 88 CALM 30.22S FLORENCE MOCLDY 72 70 93 S3 30.23R MYRTLE BEACH PTCLDY 75 70 83 S12 30.25R N MYRTLE BEACH NOT AVBL $$ GAZ063-065-086>088-099>101-113>116-118-119-134>141-150-271200- ...SOUTHEAST GEORGIA... CITY SKY/WX TMP DP RH WIND PRES REMARKS SAVANNAH ARPT MOCLDY 72 68 87 CALM 30.21R HUNTER AAF CLEAR 71 71 100 E2 30.18R FORT STEWART CLEAR 68 66 94 CALM 30.18R STATESBORO CLEAR 68 32 26 CALM 30.23R SYLVANIA MOSUNNY 68 68 100 CALM 30.24R CLAXTON FAIR 64 64 100 CALM 30.22R ...CSRA...CENTRAL AND FAR SOUTHEAST GEORGIA... CITY SKY/WX TMP DP RH WIND PRES REMARKS THOMSON CLOUDY 69 69 100 CALM 30.29R AUGUSTA-BUSH CLOUDY 69 68 96 CALM 30.23R AUGUSTA-DANIEL CLOUDY 70 67 90 CALM 30.25R FOG SWAINSBORO CLOUDY N/A N/A N/A CALM 30.24R VIDALIA FOG 68 68 100 N3 30.22R VSB 1/2 EASTMAN CLOUDY 70 70 100 CALM 30.25R HAZLEHURST FOG 69 69 100 CALM 30.21R VSB<1/4 ALMA CLEAR 68 67 96 CALM 30.19R WAYCROSS CLEAR 69 69 100 CALM 30.20R JESUP FAIR 70 70 100 CALM 30.21R BAXLEY MOCLDY 70 70 100 CALM 30.21R BRUNSWICK CLEAR 72 70 94 E3 30.20R SAINT SIMONS NOT AVBL $$ SCZ027-028-034-036>038-045-046-048>050-GAZ119-141-271200- ...LAKE AND SUPPLEMENTAL COASTAL OBSERVATIONS... STATION/POSITION TIME TEMP WIND PRES WAVE SWELL AIR SEA DIR/SP/G HT/PER HT/PER/DIR (UTC) (F) (DEG/KT/KT) (MB) (FT/S) (FT/S/D) UPR LAKE MARION NOT AVBL WINYAH BAY 1000 75 140/ 5 1022.0R LAKE MURRAY 1000 69 120/ 2/ 4 1022.7R ACE BASIN NERRS NOT AVBL FORT PULASKI 1100 75 78 150/ 2/ 5 1023.5R SAPELO ISLAND 1100 75 130/ 5 1022.0S $$ ANZ835-935-AMZ111-154-330-350-352-354-370-450-454-472-271200- ...C-MAN AND BUOY OBSERVATIONS... STATION/POSITION TIME TEMP WIND PRES WAVE SWELL AIR SEA DIR/SP/G HT/PER HT/PER/DIR (UTC) (F) (DEG/KT/KT) (MB) (FT/S) (FT/S/D) BUOY 41004 1050 77 76 150/ 10/ 12 1022.8R 3/ 7 3/ 7 BUOY 41008 1050 77 77 140/ 10/ 12 1022.7R 3/ 6 3/110/ 6 FOLLY BEACH CMAN 1100 76 160/ 7/ 8 1023.7R CAPERS NEARSHORE 1008 76 160/ 8/ 12 1022.8R FRIPP NEARSHORE 1000 77 170/ 10/ 12 1021.6R STATION/POSITION TIME TEMP WIND PRES WAVE SWELL AIR SEA DIR/SP/G HT/PER HT/PER/DIR (UTC) (F) (DEG/KT/KT) (MB) (FT/S) (FT/S/D) 5E ST. MARYS GA 1021 78 N/A 3/ 5 FRYING PAN BUOY 1050 77 74 170/ 6/ 8 1024.8R 3/ 7 3/120/ 7 BUOY 41025 1050 75 76 200/ 8/ 12 1025.6R 3/ 7 2/140/ 7 CAPE LOOKOUT NC 1100 73 200/ 4/ 5 1024.7R BUOY 41002 1050 72 74 100/ 6/ 8 1025.8R 4/ 7 3/120/ 7 BUOY 41010 1020 77 81 90/ 14/ 16 1021.8R ST AUGUSTINE FL 1100 77 78 120/ 8/ 9 1022.9R $$

USA.gov is the U.S. government's official web portal to all federal, state and local government web resources and services.